Regional Weather Roundup
Issued by NWS Cleveland, OH

Home | Current Version | Previous Version | Graphics & Text | Print | Product List | Glossary On
Versions: 1 2 3 4 5 6 7 8 9 10 11 12 13 14 15 16 17 18 19 20 21 22 23 24 25 26 27 28 29 30 31 32 33 34 35 36 37 38 39 40 41 42 43 44 45 46 47 48 49 50
000
ASUS41 KCLE 290210
RWRCLE
OHIO REGIONAL WEATHER ROUNDUP
NATIONAL WEATHER SERVICE CLEVELAND, OH
900 PM EST SUN DEC 28 2014

NOTE: "FAIR" INDICATES FEW OR NO CLOUDS BELOW 12,000 FEET WITH NO
SIGNIFICANT WEATHER AND/OR OBSTRUCTIONS TO VISIBILITY.

OHZ001>008-015>018-024>027-034-035-043-044-290300-
   NORTHWEST OHIO

CITY           SKY/WX    TMP DP  RH WIND       PRES   REMARKS
DEFIANCE       CLEAR     31  24  75 CALM      30.20R
FINDLAY        PTCLDY    28  24  85 W6        30.18R WCI  22
TOLEDO EXPRESS CLEAR     25  21  85 CALM      30.18R
TOLEDO EXEC    CLEAR     28  22  78 W7        30.19R WCI  21
LIMA           PTCLDY    32  26  78 W7        30.17S WCI  26
$$

OHZ009>014-019>023-028>033-038-089-290300-
   NORTHEAST OHIO

CITY           SKY/WX    TMP DP  RH WIND       PRES   REMARKS
CLE-HOPKINS    CLOUDY    34  28  79 W7        30.18R WCI  28
CLE-LAKEFRONT  MOCLDY    36  27  69 W13       30.15R
CUY CO. ARPT   CLOUDY    36  30  80 W9        30.15R
LORAIN-ELYRIA  MOCLDY    32  28  85 W5        30.17R WCI  27
ASHTABULA      CLOUDY    33  30  88 SW5       30.12S WCI  29
AKRON-CANTON   CLOUDY    35  29  78 NW5       30.14R
WOOSTER        CLOUDY    33  29  85 NW7       30.16R WCI  27
MANSFIELD      CLOUDY    31  27  85 W3        30.15R
YOUNGSTOWN     CLOUDY    32  29  88 W5        30.12R WCI  27
$$

OHZ042-051>053-060>062-070>072-077>081-290300-
  SOUTHWEST OHIO

CITY           SKY/WX    TMP DP  RH WIND       PRES   REMARKS
CINC-COVINGTON CLOUDY    33  26  75 NW5       30.19R WCI  29
CINC-LUNKEN    CLOUDY    35  29  78 CALM      30.21S
HAMILTON       CLOUDY    33  29  85 CALM      30.20S
DAYTON         CLOUDY    31  28  89 NW5       30.18F WCI  26
WRIGHT-PAT AFB CLOUDY    32  28  85 NW5       30.19R WCI  28
DAYTON GENERAL CLOUDY    33  28  81 N5        30.17S WCI  29
WILMINGTON     CLOUDY    33  28  81 N3        30.17S
$$

OHZ036-037-039>041-045>050-054>059-063>069-073>076-082>088-290300-
  CENTRAL AND SOUTHEAST OHIO

CITY           SKY/WX    TMP DP  RH WIND       PRES   REMARKS
COLUMBUS       CLOUDY    34  28  79 N7        30.16S WCI  28
OSU AIRPORT    CLOUDY    33  28  81 NW6       30.17R WCI  28
BOLTON FIELD   CLOUDY    33  30  90 MISG      30.18S
RICKENBACK AFB CLOUDY    35  31  83 NW3       30.17S
NEWARK         CLOUDY    35  30  82 NW6       30.17R
MARION         CLOUDY    30  26  85 NW3       30.17R
LANCASTER      CLOUDY    37  32  82 CALM      30.17R
ZANESVILLE     CLOUDY    35  29  78 NW3       30.16R
NEW PHILLY     CLOUDY    37  30  75 W3        30.16R
$$


USA.gov is the U.S. government's official web portal to all federal, state and local government web resources and services.